This is the latest recevied weather packets stored in our database for station/object OH2NJR. If no packets are shown the sender has not sent any weather packets the latest 10 day(s).
| Time | Temp. | Humidity | Pressure | Rain* | Wind** | Luminosity | Snow |
|---|---|---|---|---|---|---|---|
| 1777452638 | 5° C | 38% | 1025.3 hPa | 0 mm | - | - | - |
| 1777451513 | 5° C | 40% | 1025.3 hPa | 0 mm | - | - | - |
| 1777450508 | 4.44° C | 41% | 1025.3 hPa | 0 mm | - | - | - |
| 1777449528 | 4.44° C | 40% | 1025.2 hPa | 0 mm | - | - | - |
| 1777448424 | 4.44° C | 39% | 1025.2 hPa | 0 mm | - | - | - |
| 1777447228 | 4.44° C | 38% | 1025.2 hPa | 0 mm | - | - | - |
| 1777446151 | 3.89° C | 39% | 1025.2 hPa | 0 mm | - | - | - |
| 1777445143 | 3.89° C | 40% | 1025.2 hPa | 0 mm | - | - | - |
| 1777444139 | 3.89° C | 42% | 1025.1 hPa | 0 mm | - | - | - |
| 1777442954 | 3.89° C | 46% | 1025.1 hPa | 0 mm | - | - | - |
| 1777441820 | 3.33° C | 46% | 1025.2 hPa | 0 mm | - | - | - |
| 1777440823 | 3.33° C | 47% | 1025.1 hPa | 0 mm | - | - | - |
| 1777439814 | 3.33° C | 48% | 1025.1 hPa | 0 mm | - | - | - |
| 1777438733 | 2.22° C | 53% | 1024.7 hPa | 0 mm | - | - | - |
| 1777437669 | 2.22° C | 54% | 1024.5 hPa | 0 mm | - | - | - |
| 1777436562 | 2.22° C | 54% | 1024.6 hPa | 0 mm | - | - | - |
| 1777435600 | 2.22° C | 54% | 1024.3 hPa | 0 mm | - | - | - |
| 1777434639 | 2.22° C | 54% | 1024.3 hPa | 0 mm | - | - | - |
| 1777433605 | 2.22° C | 55% | 1024.1 hPa | 0 mm | - | - | - |
| 1777432494 | 2.22° C | 54% | 1024 hPa | 0 mm | - | - | - |
| 1777431524 | 2.22° C | 54% | 1023.9 hPa | 0 mm | - | - | - |
| 1777430384 | 2.22° C | - | - | - | - | - | - |
| 1777430379 | 2.22° C | 54% | 1023.8 hPa | 0 mm | - | - | - |
| 1777429388 | 2.22° C | 54% | 1023.8 hPa | 0 mm | - | - | - |
| 1777428418 | 2.22° C | 54% | 1023.8 hPa | 0 mm | - | - | - |
* Rain latest hour (hover to see other rain measurements)
** Current wind speed in m/s (hover to see current wind gust speed)